Probability
0 0 0 0 0 0 0 0 0 0 0 0 0 0 0 0 0 0 0 0 0 0 0 0 0 0 0 0 0 0 0 0 0 0 0 0 0 0 0 0 0 0 0
0 0 0 0 0 0 0 0 0 0 0 0 0 0 0 0 0 0 0 0 0 0 0 0 0 0 0 0 0 0 0 0 0 0 0 0 0 0 0 0 0 0 0
0 0 0 0 0 0 0 0 0 0 0 0 0 0 0 0 0 0 0 0 0 0 0 0 0 0 0 0 0 0 0 0 0 0 0 0 0 0 0 0 0 0 0
0 0 0 0 0 0 0 0 0 0 0 0 0 0 0 0 0 0 0 0 0 0 0 0 0 0 0 0 0 0 0 0 0 0 0 0 0 0 0 0 0 0 0
0 0 0 0 0 0 0 0 0 0 0 0 0 0 0 0 0 0 0 0 0 0 0 0 0 0 0 0 0 0 0 0 0 0 0 0 0 0 0 0 0 0 0
0 0 0 0 0 0 0 0 0 0 0 0 0 0 0 0 0 0 0 0 0 0 0 0 0 0 0 0 0 0 0 0 0 0 0 0 0 0 0 0 0 0 0
0 0 0 0 0 0 0 0 0 0 0 0 0 0 0 0 0 0 0 0 0 0 0 0 0 0 0 0 0 0 0 0 0 0 0 0 0 0 0 0 0 0 0
0 0 0 0 0 0 0 0 0 0 0 0 0 0 0 0 0 0 0 0 0 0 0 0 0 0 0 0 0 0 0 0 0 0 0 0 0 0 0 0 0 0 0
0 0 0 0 0 0 0 0 0 0 0 0 0 0 0 0 0 0 0 0 0 0 0 0 0 0 0 0 0 0 0 0 0 0 0 0 0 0 0 0 0 0 0
0 0 0 0 0 0 0 0 0 0 0 0 0 0 0 0 0 0 0 0 0 0 0 0 0 0 0 0 0 0 0 0 0 0 0 0 0 0 0 0 0 0 0
0 0 0 0 0 0 0 0 0 0 0 0 0 0 0 0 0 0 0 0 0 0 0 0 0 0 0 0 0 0 0 0 0 0 0 0 0 0 0 0 0 0 0
0 0 0 0 0 0 0 0 0 0 0 0 0 0 0 0 0 0 0 0 0 0 0 0 0 0 0 0 0 0 0 0 0 0 0 0 0 0 0 0 0 0 0
0 0 0 0 0 0 0 0 0 0 0 0 0 0 0 0 0 0 0 0 0 0 0 0 0 0 0 0 0 0 0 0 0 0 0 0 0 0 0 0 0 0 0
0 0 0 0 0 0 0 0 0 0 0 0 0 0 0 0 0 0 0 0 0 0 0 0 0 0 0 0 0 0 0 0 0 0 0 0 0 0 0 0 0 0 0
0 0 0 0 0 0 0 0 0 0 0 0 0 0 0 0 0 0 0 0 0 0 0 0 0 0 0 0 0 0 0 0 0 0 0 0 0 0 0 0 0 0 0
0 0 0 0 0 0 0 0 0 0 0 0 0 0 0 0 0 0 0 0 0 0 0 0 0 0 0 0 0 0 0 0 0 0 0 0 0 0 0 0 0 0 0
0 0 0 0 0 0 0 0 0 0 0 0 0 0 0 0 0 0 0 0 0 0 0 0 0 0 0 0 0 0 0 0 0 0 0 0 0 0 0 0 0 0 0
0 0 0 0 0 0 0 0 0 0 0 0 0 0 0 0 0 0 0 0 0 0 0 0 0 0 0 0 0 0 0 0 0 0 0 0 0 0 0 0 0 0 0
0 0 0 0 0 0 0 0 0 0 0 0 0 0 0 0 0 0 0 0 0 0 0 0 0 0 0 0 0 0 0 0 0 0 0 0 0 0 0 0 0 0 0
0 0 0 0 0 0 0 0 0 0 0 0 0 0 0 0 0 0 0 0 0 0 0 0 0 0 0 0 0 0 0 0 0 0 0 0 0 0 0 0 0 0 0
0 0 0 0 0 0 0 0 0 0 0 0 0 0 0 0 0 0 0 0 0 0 0 0 0 0 0 0 0 0 0 0 0 0 0 0 0 0 0 0 0 0 0
0 0 0 0 0 0 0 0 0 0 0 0 0 0 0 0 0 0 0 0 0 0 0 0 0 0 0 0 0 0 0 0 0 0 0 0 0 0 0 0 0 0 0
0 0 0 0 0 0 0 0 0 0 0 0 0 0 0 0 0 0 0 0 0 0 0 0 0 0 0 0 0 0 0 0 0 0 0 0 0 0 0 0 0 0 0
0 0 0 0 0 0 0 0 0 0 0 0 0 0 0 0 0 0 0 0 0 0 0 0 0 0 0 0 0 0 0 0 0 0 0 0 0 0 0 0 0 0 0
0 0 0 0 0 0 0 0 0 0 0 0 0 0 0 0 0 0 0 0 0 0 0 0 0 0 0 0 0 0 0 0 0 0 0 0 0 0 0 0 0 0 0
0 0 0 0 0 0 0 0 0 0 0 0 0 0 0 0 0 0 0 0 0 0 0 0 0 0 0 0 0 0 0 0 0 0 0 0 0 0 0 0 0 0 0
Wind_Speed
1 1 1 1 2 2 2 2 2 2 3 3 3 3 3 3 3 4 4 4 5 5 5 6 6 6 5 5 6 6 6 6 9 7 6 5 6 6 5 5 5 5 4
1 1 1 1 2 2 2 2 2 3 3 3 3 3 3 3 4 4 5 5 5 5 5 6 7 6 7 6 6 7 6 6 7 9 7 6 7 6 6 6 5 5 5
1 1 1 2 2 2 3 3 3 3 3 3 3 4 4 4 4 5 5 5 6 6 6 6 7 7 7 6 6 6 6 5 6 6 7 5 5 5 6 5 5 5 5
1 1 1 2 3 3 3 3 3 3 3 4 4 4 4 4 5 5 5 6 6 6 6 6 7 7 7 7 6 6 5 6 6 6 6 5 5 5 5 4 5 5 5
1 1 2 2 3 3 3 3 4 4 4 4 4 4 4 4 4 5 5 6 6 6 6 6 7 7 8 7 6 6 6 5 5 6 6 5 5 4 4 4 5 5 6
1 2 2 2 3 3 3 4 4 4 4 4 4 5 5 4 6 8 7 6 6 6 7 7 6 7 7 9 10 9 8 7 7 6 6 7 7 6 5 5 5 5 6
1 2 2 2 3 3 4 3 4 4 4 4 5 5 5 6 8 8 8 6 6 6 7 6 6 6 7 7 8 9 9 10 11 9 9 9 8 7 6 7 6 7 7
1 2 2 3 3 3 4 4 4 4 4 5 5 5 6 6 9 9 9 6 6 7 7 7 7 7 7 7 7 7 7 8 9 8 8 9 8 7 7 7 8 7 6
2 2 3 3 3 3 4 4 4 4 5 5 5 6 6 7 8 9 8 5 5 6 6 6 7 7 8 9 8 8 8 7 7 9 10 10 10 10 7 5 5 5 6
3 3 3 3 4 4 4 4 4 4 5 5 5 5 6 7 8 9 9 4 5 6 6 6 6 8 10 10 7 7 8 8 7 6 7 8 8 7 8 7 6 6 5
3 3 3 3 4 4 4 3 4 4 4 4 5 5 5 6 8 9 9 5 5 6 6 5 5 9 10 10 9 7 9 8 6 6 6 6 5 5 5 6 6 6 6
3 3 3 3 3 3 3 3 3 3 3 4 4 5 4 5 6 8 10 9 8 6 6 6 6 10 11 10 8 8 10 8 5 5 5 5 5 5 5 5 5 6 6
2 2 3 3 3 3 3 3 3 3 3 3 3 4 4 4 5 9 9 10 10 6 5 8 10 11 11 8 8 9 7 5 5 5 6 6 5 5 5 4 4 4 5
2 2 2 2 2 2 2 2 2 2 3 3 4 4 5 5 5 5 5 5 6 6 5 6 8 8 7 7 6 5 4 4 5 5 5 5 4 4 4 4 4 4 4
2 2 2 2 2 2 2 3 3 3 4 4 4 4 4 5 6 10 8 5 5 5 6 5 5 5 5 5 5 4 4 4 4 4 5 5 4 4 4 4 4 4 5
1 1 1 1 2 2 2 3 4 5 7 7 7 6 5 7 10 10 10 10 9 8 5 4 4 5 5 5 5 5 5 5 5 5 4 4 4 4 4 4 4 4 4
2 2 2 2 2 2 2 2 3 4 5 6 7 8 8 9 9 10 10 9 8 7 3 3 4 5 5 5 5 5 5 5 5 5 5 4 4 4 4 4 4 4 4
2 2 2 2 2 2 2 2 2 3 4 4 5 8 9 9 9 9 9 7 4 4 3 4 4 5 5 5 5 5 5 5 5 5 4 4 4 4 4 4 4 4 4
2 2 1 2 2 2 2 2 2 3 3 4 4 5 7 8 8 8 7 3 3 4 4 4 5 5 5 5 5 5 5 5 6 5 5 4 4 4 4 4 4 4 4
2 2 2 1 1 1 1 2 2 2 3 3 4 4 5 5 4 5 4 3 3 4 4 5 5 5 5 5 5 5 5 5 6 5 5 4 4 4 4 4 4 4 3
1 1 2 1 1 1 1 2 2 2 3 3 4 5 7 4 4 5 4 4 4 4 5 5 5 5 5 5 5 6 6 5 5 5 5 4 4 4 4 4 4 3 3
1 1 1 1 1 1 2 2 2 2 3 4 4 5 7 4 4 4 4 4 5 5 5 5 5 5 5 5 5 6 6 6 5 5 5 5 4 4 4 3 3 3 2
2 1 1 1 2 2 2 2 2 3 3 4 4 4 4 4 4 5 5 5 5 5 5 5 5 5 5 5 5 5 6 6 6 6 5 5 4 4 3 3 3 3 3
2 2 1 2 1 2 2 2 2 3 3 4 4 4 4 5 5 6 6 5 5 6 5 5 6 7 9 7 6 5 5 6 6 5 6 5 5 4 3 3 3 3 3
2 2 2 2 2 2 2 3 3 3 3 4 4 4 5 5 5 5 5 5 6 6 7 7 6 6 8 10 9 7 8 9 8 5 5 4 4 4 3 3 3 2 2
2 2 2 2 2 2 3 3 3 4 4 4 4 5 5 5 5 6 5 5 6 6 7 7 8 9 10 9 9 10 9 9 8 6 4 3 3 3 3 2 3 2 2
Wind_Direction
324 301 291 287 287 282 288 299 299 298 298 290 287 287 286 285 284 278 278 281 277 278 275 268 268 268 261 257 254 252 256 258 267 281 285 288 286 286 289 291 287 283 280
327 330 311 302 297 295 298 300 303 298 297 292 289 283 282 282 282 278 277 277 277 277 280 277 271 268 265 262 259 256 256 257 263 274 283 287 284 286 289 292 295 290 284
330 328 320 319 313 310 308 308 307 305 304 300 293 289 287 285 282 280 278 277 275 273 275 276 276 268 265 265 263 262 261 263 262 268 278 285 287 291 293 293 295 296 294
312 305 314 319 317 316 313 311 308 305 302 302 297 291 290 285 279 281 283 281 282 279 277 276 276 270 267 267 263 262 264 264 262 265 269 277 282 293 286 288 293 297 293
296 301 310 319 317 315 317 318 318 311 304 301 297 294 293 286 282 286 287 286 286 284 281 278 277 277 277 273 270 266 262 260 262 263 266 271 270 283 280 284 282 288 289
293 302 316 319 319 315 315 316 317 318 317 311 304 301 296 290 295 294 297 287 286 284 283 283 281 275 275 273 273 270 264 260 261 262 266 265 268 272 277 275 278 282 282
299 310 317 314 310 312 314 312 313 312 313 311 311 310 303 301 303 299 302 296 287 283 284 285 286 283 277 275 275 272 268 265 260 261 265 267 272 268 266 267 268 273 274
304 309 313 308 306 310 309 309 312 312 307 306 309 309 307 308 312 309 308 300 290 286 284 282 283 284 283 283 281 277 272 268 265 262 263 267 270 271 261 261 265 273 282
304 303 305 301 300 302 302 305 310 308 305 307 308 307 305 306 312 315 317 305 296 295 293 291 286 284 288 286 280 278 279 279 277 269 270 274 280 277 272 266 261 262 273
301 299 297 294 290 290 293 300 306 303 301 307 306 304 302 304 312 319 322 310 304 302 300 295 289 286 289 288 281 278 278 283 284 284 276 275 273 270 262 251 249 251 266
310 309 304 297 293 289 294 303 306 307 307 308 309 310 309 313 317 325 328 319 308 305 301 299 297 296 295 293 289 281 282 288 285 279 277 275 271 266 262 258 256 251 252
318 310 302 299 297 297 302 308 313 313 310 313 316 317 318 321 323 324 325 322 317 307 302 302 304 308 305 300 295 294 295 290 279 275 271 271 271 271 271 269 265 264 264
317 306 302 308 305 306 299 305 313 315 314 314 313 313 317 319 319 322 319 319 320 313 306 311 315 316 312 307 304 304 301 285 275 271 270 271 273 274 274 271 269 266 269
300 302 310 309 309 315 305 297 300 303 309 309 308 309 311 313 318 320 318 319 320 319 317 318 319 321 322 314 309 307 298 287 280 276 279 282 283 276 268 266 266 269 268
296 299 304 301 305 304 303 293 295 289 295 302 300 301 305 308 314 322 324 320 324 324 326 320 320 323 325 323 318 311 306 299 289 285 281 283 285 279 275 275 270 267 261
273 287 291 297 303 303 309 314 315 316 320 319 319 319 314 313 318 322 326 331 336 341 337 319 317 317 318 318 317 315 311 306 302 297 291 286 283 282 281 275 266 264 262
250 262 275 282 286 293 304 312 320 332 337 335 336 335 333 332 332 331 336 342 347 351 340 320 315 315 314 313 311 309 309 310 306 296 290 287 285 281 280 279 276 270 267
260 259 260 263 273 281 288 295 299 310 321 328 336 340 341 341 340 343 348 353 347 351 332 320 313 309 307 306 306 308 310 311 308 303 298 291 285 282 280 280 277 275 269
252 258 265 270 275 282 294 297 297 300 303 311 321 331 342 338 341 350 359 351 330 325 321 317 313 309 304 302 303 304 305 305 308 306 301 301 297 292 288 286 285 285 276
238 248 259 262 274 288 295 296 302 305 306 306 309 319 330 333 337 338 342 331 319 312 311 309 308 308 308 303 302 303 303 303 305 304 303 303 301 294 287 288 290 291 287
242 251 255 255 260 272 280 285 288 291 294 298 300 305 319 320 314 314 316 314 309 305 304 303 303 305 305 306 305 302 301 300 301 302 301 300 299 296 296 300 300 296 296
230 238 254 263 265 269 279 280 280 283 289 295 302 310 320 317 306 304 304 304 303 299 297 296 297 299 300 301 303 305 304 301 301 301 301 301 297 296 301 303 306 309 310
225 231 247 257 264 268 272 274 278 281 285 289 293 301 307 304 301 301 301 303 304 301 299 296 296 298 300 299 298 295 295 297 298 295 294 294 294 296 300 301 302 308 310
237 236 246 260 266 271 277 283 283 282 283 287 292 294 296 296 297 298 299 299 301 300 299 296 292 294 300 304 301 298 296 298 302 296 290 290 293 296 296 297 298 300 300
238 238 246 255 261 267 273 279 281 284 285 286 289 291 294 297 297 298 299 299 301 299 301 300 296 296 298 300 302 302 303 303 303 304 297 287 287 290 293 295 296 300 298
243 246 251 255 259 262 266 272 277 281 283 285 284 285 288 291 292 295 297 299 302 302 302 301 300 302 302 301 300 303 303 302 304 302 293 286 287 291 296 292 291 295 299